CAPE
0 0 18 0 0 109 0 7 94 147 88 63 289 622 728 638 885 406 964 481 504 500 978 346 204 375 613 535 533 635 680 645 581 500 461 506 477 424 449 573 775 860 673 419 180 46 11 10 0
0 0 0 0 61 4 4 0 16 241 306 152 257 743 955 1002 834 828 787 471 367 1235 1198 563 181 259 427 596 550 407 472 509 533 541 539 529 525 536 487 408 380 369 315 215 139 96 50 13 8
0 0 0 26 82 0 0 0 0 435 310 341 471 1232 1366 1028 629 674 485 242 72 1245 1314 690 374 523 531 343 424 651 803 810 826 845 825 783 716 638 596 548 505 509 556 534 489 450 346 183 50
0 0 0 0 19 0 0 0 274 323 164 496 980 828 1035 1013 492 369 43 2 485 689 1009 868 901 919 878 668 459 451 401 380 385 390 406 380 353 314 250 211 223 284 336 454 556 699 684 496 314
0 0 0 1 115 87 71 159 262 351 354 767 815 753 765 379 230 43 0 7 44 685 889 894 796 788 824 949 835 736 737 679 644 555 376 195 67 24 0 27 80 165 232 287 329 386 498 544 385
0 0 0 2 1 0 18 273 293 196 704 856 688 597 560 561 111 38 13 0 4 442 415 403 353 483 610 658 470 273 161 104 95 107 142 184 195 185 187 147 258 333 369 301 333 366 301 259 301
0 0 0 0 44 0 15 19 146 60 377 580 565 450 463 330 114 0 0 0 15 54 723 637 494 688 641 202 29 73 139 187 239 246 196 67 170 483 492 455 556 338 243 296 385 429 580 726 677
0 0 0 0 56 115 0 0 0 10 351 513 628 678 742 347 84 60 39 32 269 909 887 772 878 862 399 235 344 366 393 407 342 289 349 390 410 456 699 600 275 28 0 0 0 24 100 153 240
0 0 0 0 0 206 66 42 472 371 856 1382 1112 1119 845 274 120 142 259 562 845 1065 1354 1671 1522 731 794 808 798 559 588 596 571 389 252 432 453 514 264 186 116 73 73 66 137 163 187 80 108
0 0 0 0 0 90 83 178 383 617 1025 1305 1148 917 683 269 388 509 611 725 677 667 1006 1202 1216 1215 1088 681 1064 665 755 537 323 241 67 208 488 302 267 449 291 255 340 309 360 318 386 363 363
0 0 0 0 0 0 4 100 37 426 761 1075 1255 1142 942 747 675 483 895 834 836 741 721 746 712 817 888 606 522 478 363 377 220 77 0 5 178 76 128 193 253 305 249 316 398 339 517 453 490
0 0 0 0 0 0 0 291 155 108 628 1198 1225 1203 976 759 650 688 876 738 661 641 501 485 531 549 511 458 318 244 159 158 105 27 0 0 0 0 0 106 89 109 195 142 98 164 245 556 492
0 0 0 0 0 0 0 597 1243 1158 1054 1059 1150 944 735 740 811 871 751 681 543 431 314 261 297 390 324 269 199 94 1 8 2 0 0 0 0 0 0 0 0 0 0 0 0 0 0 18 100
0 0 0 0 0 0 0 1112 1247 1149 896 919 886 733 742 804 762 751 563 480 331 227 131 139 107 88 85 49 0 0 0 0 0 0 0 0 0 0 0 0 0 0 0 0 0 0 0 0 0
0 0 0 0 0 0 113 780 552 1001 766 803 769 770 785 787 707 559 438 337 182 79 62 60 40 26 8 0 0 0 0 0 0 0 0 0 0 0 0 0 0 0 0 0 0 0 0 0 0
0 0 0 0 0 0 3 223 940 1048 908 859 837 750 679 528 309 189 159 182 107 29 0 0 0 0 0 0 0 0 0 0 0 0 0 0 0 0 0 0 0 0 0 0 0 0 0 0 0
0 0 0 3 0 0 0 289 1027 1007 1041 983 866 716 465 157 26 2 1 2 0 0 0 0 0 0 0 0 0 0 0 0 0 0 0 0 0 0 0 0 0 0 0 0 0 0 0 0 0
0 0 0 45 2 0 0 43 946 903 984 979 856 594 326 69 0 0 0 0 0 0 0 0 0 0 0 0 0 0 0 0 0 0 0 0 0 0 0 2 1 5 2 6 1 0 0 0 5
0 0 0 5 95 13 14 420 976 881 957 992 890 712 405 95 0 0 0 0 0 0 0 0 0 0 0 0 0 0 0 0 0 0 0 0 0 6 7 1 1 0 14 10 2 0 0 2 0
0 0 3 105 96 50 116 523 1018 1003 1015 1068 1022 860 500 5 0 0 0 0 0 0 0 0 0 0 0 0 0 0 0 0 0 0 12 7 0 0 3 0 3 3 1 20 19 7 0 3 11
0 0 0 116 174 151 101 219 706 226 959 987 1018 992 527 8 0 0 0 0 0 0 0 0 0 0 0 0 0 0 0 0 0 0 0 0 0 2 5 5 10 17 23 14 8 11 14 15 15
0 0 0 27 41 25 0 0 757 782 885 927 1047 1020 565 75 0 0 0 0 0 0 0 0 0 0 0 0 0 0 0 0 0 0 0 3 4 8 16 11 16 12 15 19 16 17 14 6 9
0 0 0 56 98 51 0 0 1 231 513 848 1023 1066 683 167 0 0 0 0 0 0 0 0 0 0 0 0 0 0 0 0 2 0 1 2 5 17 29 15 14 17 2 7 12 15 0 4 2
0 0 1 0 36 14 1 47 21 279 10 382 431 966 829 204 27 0 0 0 0 0 0 0 0 0 0 0 0 0 2 2 0 3 5 4 3 16 1 16 10 3 4 14 30 16 12 11 2
0 0 0 18 13 4 52 122 75 70 9 19 47 741 645 276 65 0 0 0 0 0 0 0 0 0 0 0 0 1 2 1 3 4 7 5 7 11 22 15 9 19 16 14 8 2 19 7 1
0 3 21 49 28 2 1 0 188 11 1 0 225 544 506 309 135 0 0 0 0 0 0 0 0 0 0 0 0 2 1 3 0 7 10 13 4 9 12 14 10 15 0 8 7 8 9 13 20
0 0 1 5 0 9 1 0 86 6 1 0 304 722 450 325 36 0 0 0 0 0 0 0 0 0 0 0 0 2 3 0 0 5 9 10 11 16 6 8 8 10 1 0 24 3 2 3 1
4 3 0 9 0 0 1 66 1 12 55 22 28 876 576 289 19 0 0 0 0 0 0 0 0 0 0 0 0 1 0 0 3 8 8 0 0 0 4 11 20 10 9 17 14 14 17 16 16
0 0 7 33 28 8 63 31 37 30 50 74 87 125 642 395 95 18 0 0 0 0 0 0 0 0 0 0 0 0 0 1 0 0 0 1 0 0 0 0 2 17 3 3 19 20 3 3 9
0 0 0 8 10 27 120 10 0 0 0 0 4 156 255 299 148 52 0 0 0 0 0 0 0 0 0 0 0 0 1 0 2 0 4 3 4 0 0 1 2 7 0 0 0 1 19 13 11
CIN
-0 -0 -557 -0 -0 -46 -0 -55 -83 -31 -94 -92 -39 -81 -98 -71 -21 -36 -2 -3 -26 -32 -31 -109 -125 -91 -44 -37 -39 -31 -23 -22 -21 -23 -24 -17 -17 -20 -18 -15 -5 -0 -6 -24 -54 -116 -142 -172 -0
-0 -0 -0 -0 -66 -3 -46 -0 -89 -54 -69 -79 -52 -6 -41 -15 -3 -1 -2 -0 -4 -7 -23 -76 -128 -88 -53 -31 -33 -49 -32 -18 -8 -6 -7 -9 -11 -11 -16 -22 -21 -15 -21 -36 -53 -77 -119 -59 -76
-0 -0 -0 -100 -32 -11 -0 -0 -0 -35 -7 -32 -70 -74 -36 -5 -19 -9 -9 -5 -41 -13 -40 -72 -86 -47 -31 -61 -51 -17 -3 -0 -0 -0 -0 -0 -0 -1 -2 -7 -9 -6 -1 -2 -2 -5 -30 -73 -112
-0 -0 -0 -0 -24 -0 -0 -0 -8 -47 -14 -20 -45 -112 -50 -12 -30 -12 -6 -5 -3 -13 -59 -60 -34 -13 -7 -9 -39 -26 -37 -27 -24 -16 -16 -22 -35 -45 -52 -67 -64 -52 -37 -21 -11 -3 -9 -29 -55
-0 -0 -0 -55 -37 -130 -148 -4 -112 -104 -0 -9 -82 -85 -69 -58 -54 -62 -0 -3 -11 -33 -53 -57 -58 -42 -30 -12 -13 -14 -10 -11 -13 -22 -40 -74 -136 -149 -0 -159 -125 -102 -79 -59 -63 -52 -32 -25 -46
-0 -0 -0 -25 -15 -0 -75 -64 -110 -53 -34 -59 -97 -114 -61 -18 -56 -40 -14 -0 -1 -19 -69 -101 -122 -99 -76 -58 -70 -98 -116 -140 -135 -130 -107 -101 -92 -101 -104 -114 -91 -74 -60 -74 -62 -61 -69 -73 -62
-0 -0 -0 -0 -98 -0 -76 -207 -68 -209 -20 -3 -65 -127 -72 -26 -64 -0 -0 -0 -34 -24 -38 -86 -108 -103 -80 -144 -210 -168 -134 -115 -92 -84 -95 -134 -99 -46 -46 -54 -61 -73 -93 -87 -76 -65 -47 -25 -28
-0 -0 -0 -0 -21 -105 -0 -0 -24 -211 -23 -32 -13 -48 -46 -71 -89 -46 -26 -14 -4 -30 -15 -5 -36 -46 -89 -99 -97 -86 -68 -66 -73 -94 -62 -46 -38 -34 -21 -33 -89 -156 -0 -0 -0 -138 -148 -129 -83
-0 -0 -0 -0 -0 -90 -161 -170 -36 -39 -64 -61 -40 -64 -81 -71 -45 -12 -3 -16 -33 -17 -10 -13 -13 -42 -18 -8 -51 -65 -43 -34 -49 -64 -88 -35 -10 -5 -9 -45 -58 -88 -100 -112 -103 -94 -87 -113 -105
-0 -0 -0 -0 -0 -13 -44 -16 -12 -34 -80 -72 -84 -80 -64 -46 -6 -4 -3 -59 -83 -65 -53 -21 -41 -31 -5 -17 -20 -25 -9 -17 -53 -104 -151 -79 -17 -67 -59 -14 -31 -47 -35 -35 -51 -44 -36 -47 -22
-0 -0 -0 -0 -0 -0 -11 -54 -160 -3 -37 -75 -84 -50 -7 -28 -60 -74 -27 -71 -57 -61 -65 -58 -87 -64 -33 -9 -17 -26 -51 -28 -65 -202 -0 -26 -89 -155 -117 -66 -31 -24 -19 -12 -6 -4 -14 -6 -10
-0 -0 -0 -0 -0 -0 -0 -140 -368 -38 -43 -48 -93 -45 -71 -67 -88 -70 -31 -70 -64 -60 -137 -122 -100 -92 -81 -64 -99 -87 -110 -114 -117 -222 -0 -0 -0 -0 -0 -98 -87 -59 -25 -48 -96 -74 -55 -12 -9
-0 -0 -0 -0 -0 -0 -0 -25 -76 -35 -21 -83 -101 -87 -75 -55 -36 -34 -44 -40 -82 -143 -194 -182 -170 -133 -154 -149 -160 -229 -18 -132 -82 -0 -0 -0 -0 -0 -0 -0 -0 -0 -0 -0 -0 -0 -0 -83 -84
-0 -0 -0 -0 -0 -0 -0 -19 -26 -106 -120 -115 -108 -95 -70 -45 -37 -36 -69 -112 -210 -225 -286 -262 -289 -301 -299 -332 -0 -0 -0 -0 -0 -0 -0 -0 -0 -0 -0 -0 -0 -0 -0 -0 -0 -0 -0 -0 -0
-0 -0 -0 -0 -0 -0 -2 -18 -10 -117 -130 -133 -125 -102 -94 -65 -47 -110 -142 -186 -268 -323 -321 -317 -358 -382 -420 -0 -0 -0 -0 -0 -0 -0 -0 -0 -0 -0 -0 -0 -0 -0 -0 -0 -0 -0 -0 -0 -0
-0 -0 -0 -0 -0 -0 -22 -5 -16 -79 -97 -110 -111 -117 -109 -121 -196 -257 -281 -268 -330 -414 -0 -0 -0 -0 -0 -0 -0 -0 -0 -0 -0 -0 -0 -0 -0 -0 -0 -0 -0 -0 -0 -0 -0 -0 -0 -0 -0
-0 -0 -0 -1 -0 -0 -0 -6 -34 -55 -48 -55 -85 -91 -134 -267 -372 -141 -85 -233 -0 -0 -0 -0 -0 -0 -0 -0 -0 -0 -0 -0 -0 -0 -0 -0 -0 -0 -0 -0 -0 -0 -0 -0 -0 -0 -0 -0 -0
-0 -0 -0 -5 -32 -0 -0 -15 -73 -89 -35 -33 -61 -88 -153 -299 -0 -0 -0 -0 -0 -0 -0 -0 -0 -0 -0 -0 -0 -0 -0 -0 -0 -0 -0 -0 -0 -0 -0 -1 -2 -1 -1 -1 -4 -0 -0 -0 -4
-0 -0 -0 -3 -18 -50 -2 -17 -55 -104 -57 -17 -51 -52 -106 -237 -0 -0 -0 -0 -0 -0 -0 -0 -0 -0 -0 -0 -0 -0 -0 -0 -0 -0 -0 -0 -0 -2 -3 -10 -6 -0 -4 -9 -17 -0 -0 -1 -0
-0 -0 -3 -9 -6 -5 -2 -12 -68 -95 -80 -38 -33 -16 -65 -32 -0 -0 -0 -0 -0 -0 -0 -0 -0 -0 -0 -0 -0 -0 -0 -0 -0 -0 -8 -14 -0 -1 -15 -14 -9 -13 -16 -7 -12 -6 -0 -18 -3
-0 -0 -0 -5 -17 -28 -18 -2 -39 -109 -80 -64 -13 -2 -41 -164 -0 -0 -0 -0 -0 -0 -0 -0 -0 -0 -0 -0 -0 -0 -0 -0 -0 -1 -0 -0 -0 -32 -24 -15 -20 -5 -13 -7 -3 -14 -6 -13 -15
-0 -0 -0 -4 -11 -17 -0 -0 -53 -17 -128 -88 -44 -3 -31 -208 -0 -0 -0 -0 -0 -0 -0 -0 -0 -0 -0 -0 -0 -0 -0 -0 -0 -0 -0 -1 -7 -20 -21 -18 -3 -9 -10 -3 -3 -15 -7 -18 -4
-0 -0 -0 -6 -7 -4 -1 -0 -5 -30 -42 -30 -0 -8 -20 -100 -0 -0 -0 -0 -0 -0 -0 -0 -0 -0 -0 -0 -0 -0 -0 -0 -1 -1 -0 -4 -5 -6 -5 -14 -22 -5 -29 -15 -4 -8 -0 -9 -11
-0 -0 -2 -0 -4 -5 -2 -25 -14 -53 -24 -54 -118 -29 -9 -97 -213 -0 -0 -0 -0 -0 -0 -0 -0 -0 -0 -0 -0 -0 -0 -1 -3 -6 -9 -6 -12 -11 -28 -26 -20 -16 -22 -11 -4 -5 -3 -5 -1
-0 -0 -0 -4 -5 -20 -8 -8 -11 -236 -140 -201 -167 -44 -37 -70 -175 -0 -0 -0 -0 -0 -0 -0 -0 -0 -0 -0 -0 -1 -0 -6 -9 -11 -5 -5 -6 -13 -16 -7 -8 -3 -2 -2 -3 -7 -4 -4 -4
-0 -4 -6 -4 -19 -51 -11 -12 -90 -147 -16 -0 -93 -10 -10 -67 -117 -0 -0 -0 -0 -0 -0 -0 -0 -0 -0 -0 -0 -0 -4 -11 -1 -6 -13 -6 -12 -10 -7 -3 -5 -1 -0 -5 -5 -2 -2 -2 -3
-0 -0 -3 -3 -0 -21 -68 -0 -56 -80 -18 -0 -25 -28 -83 -12 -72 -0 -0 -0 -0 -0 -0 -0 -0 -0 -0 -0 -0 -0 -6 -0 -3 -6 -6 -3 -3 -5 -2 -2 -11 -4 -0 -3 -4 -5 -2 -2 -2
-3 -11 -1 -7 -0 -0 -4 -24 -22 -15 -22 -105 -93 -15 -16 -22 -43 -0 -0 -2 -0 -0 -0 -0 -0 -0 -0 -0 -0 -1 -0 -0 -4 -2 -1 -0 -0 -0 -3 -2 -2 -2 -5 -1 -1 -2 -3 -2 -2
-0 -0 -11 -2 -28 -14 -23 -43 -59 -7 -5 -8 -6 -4 -16 -46 -37 -72 -0 -0 -0 -0 -0 -0 -0 -0 -0 -0 -0 -0 -0 -0 -0 -0 -0 -1 -0 -0 -0 -0 -2 -1 -4 -2 -2 -2 -3 -2 -3
-0 -0 -0 -18 -12 -10 -13 -8 -0 -0 -0 -0 -1 -13 -7 -36 -46 -35 -0 -0 -0 -0 -0 -0 -0 -0 -0 -0 -0 -0 -0 -0 -2 -0 -1 -1 -1 -0 -0 -1 -0 -2 -0 -0 -1 -3 -4 -2 -3
Wind_Speed
17 15 14 13 11 13 21 7 5 17 20 23 26 25 28 26 23 17 16 16 18 17 18 17 16 15 15 15 15 15 15 16 16 16 17 17 18 18 19 19 20 20 20 20 20 20 20 20 21
18 19 18 9 4 21 19 19 10 22 20 21 23 23 25 27 24 21 18 18 21 19 17 18 17 16 16 16 16 16 16 16 17 17 17 18 18 19 19 20 21 21 22 22 22 22 22 22 23
18 16 17 9 6 16 28 8 17 21 21 19 20 23 23 22 23 19 19 19 19 20 20 17 17 17 17 16 17 17 17 17 17 18 18 19 20 20 21 21 22 23 23 23 23 23 24 24 25
18 17 5 17 24 7 12 8 15 23 20 21 20 24 22 21 20 20 20 21 21 22 21 19 18 17 17 17 18 18 18 18 18 19 19 20 21 21 22 22 22 23 23 24 25 25 26 26 26
18 5 26 25 20 21 22 12 20 21 20 20 22 22 23 23 22 21 21 22 21 22 22 20 19 18 18 18 18 19 19 19 19 20 20 20 20 21 21 21 22 23 24 25 26 27 27 27 27
26 26 29 24 21 21 24 22 22 21 19 19 22 23 23 21 21 20 21 22 21 21 21 21 20 19 18 19 19 19 19 20 20 20 20 21 21 21 21 21 23 24 25 26 27 28 28 28 28
26 30 32 34 17 14 22 25 20 14 8 19 21 24 21 21 21 21 21 21 20 19 20 19 20 19 19 19 19 19 19 19 19 20 21 21 21 21 22 22 23 24 27 27 27 28 28 28 28
22 33 33 31 3 10 6 8 16 22 20 19 16 17 18 19 21 21 21 21 23 23 22 22 19 19 19 19 20 19 19 19 20 21 25 25 24 22 23 21 23 27 26 25 25 26 26 26 26
30 35 32 31 28 8 9 8 11 14 17 19 22 21 20 21 21 20 19 19 19 21 21 21 23 19 18 19 20 18 19 20 23 25 28 29 26 27 27 21 24 24 24 24 24 26 27 26 26
8 13 30 32 30 14 6 6 9 12 14 16 19 20 20 20 18 17 17 17 18 20 19 21 22 23 23 21 19 21 20 22 25 26 28 29 27 28 29 30 19 21 22 25 22 25 27 27 25
17 11 28 27 30 24 14 16 13 10 12 13 16 18 18 16 15 14 16 18 18 19 19 20 21 23 23 24 22 23 23 25 25 27 29 29 27 28 27 27 26 25 26 25 26 27 23 28 27
6 12 24 31 26 20 18 11 22 16 8 17 16 16 16 15 14 14 15 16 17 18 19 21 21 22 23 24 24 25 26 25 26 26 29 29 29 28 29 27 27 28 28 29 30 30 32 29 30
10 5 7 21 24 17 18 9 9 12 11 14 14 15 15 15 15 15 14 14 16 18 20 21 21 23 24 24 26 25 26 27 27 26 28 29 30 30 30 29 27 28 29 30 31 30 32 32 32
10 14 12 14 12 11 5 5 10 7 7 9 11 13 13 13 13 14 14 15 16 18 19 20 22 23 24 25 26 26 25 26 27 28 27 30 31 32 31 30 30 29 31 30 29 30 32 31 31
6 9 11 9 4 5 5 7 10 4 4 6 8 9 10 10 12 13 13 15 15 17 19 20 21 23 24 25 25 25 27 26 26 27 27 31 32 32 33 32 30 30 33 31 29 30 31 32 33
10 10 7 2 4 4 4 6 1 3 4 3 4 5 7 8 10 11 12 13 15 17 19 21 23 24 24 25 24 23 25 25 27 29 30 33 34 34 34 32 31 32 32 31 31 32 33 33 33
4 3 5 4 6 2 10 9 1 5 5 2 2 3 4 7 8 10 11 13 15 16 18 20 22 24 25 26 27 26 23 26 28 29 30 34 34 35 34 32 32 32 31 30 30 32 33 34 33
2 2 4 4 7 8 5 8 5 5 5 4 3 2 1 4 6 7 9 12 13 15 18 20 22 25 26 27 28 29 29 30 30 30 32 33 34 35 34 32 33 32 31 31 30 32 33 32 32
33 11 7 8 6 3 8 6 7 7 6 6 4 3 1 2 5 6 8 10 12 14 17 19 22 25 27 28 30 32 32 30 29 29 33 31 33 34 35 34 33 32 32 29 30 31 33 31 32
34 29 23 7 2 4 7 5 4 5 7 7 6 5 2 2 3 4 6 9 11 13 16 19 21 25 27 28 30 31 31 30 28 32 30 34 33 33 34 34 32 30 28 28 29 29 29 29 30
7 19 26 6 7 13 18 8 3 15 10 7 6 5 3 1 1 3 5 7 9 12 15 18 21 23 27 30 31 32 31 31 33 32 33 33 32 32 31 30 29 28 27 28 27 28 28 27 27
16 11 28 17 8 15 7 9 6 15 8 6 7 5 3 1 1 2 4 6 8 11 14 17 20 24 27 30 32 34 34 34 34 34 33 31 31 30 29 28 28 27 26 26 26 26 26 26 26
14 12 8 8 5 16 10 10 13 15 10 7 5 4 3 1 0 1 3 4 7 10 13 16 19 23 26 29 31 33 33 33 33 32 31 31 30 28 27 26 26 25 24 25 26 25 26 25 24
10 24 5 17 14 8 11 11 17 12 9 7 3 7 5 3 2 2 3 5 6 9 12 15 19 23 26 29 31 32 31 31 31 30 30 29 28 26 26 26 25 24 25 24 24 24 24 24 25
5 7 7 6 6 6 21 3 13 6 5 6 8 7 10 6 6 5 5 5 6 7 12 15 19 23 26 28 30 30 28 28 29 29 28 28 26 25 25 24 24 23 23 23 24 23 25 26 27
5 6 6 8 19 22 27 13 11 5 5 2 6 8 7 14 6 5 5 5 5 9 12 15 18 22 25 26 28 27 27 26 26 26 25 25 24 24 23 23 23 23 23 22 24 25 26 27 25
7 9 10 25 30 10 15 23 9 9 13 14 13 7 6 6 4 4 5 5 6 9 11 14 17 21 23 25 25 24 24 24 24 24 22 23 24 21 22 21 22 23 24 24 24 26 27 28 28
13 11 11 13 23 24 24 19 14 13 10 12 11 6 6 6 4 5 5 6 8 9 12 15 17 20 21 23 23 21 20 20 20 21 24 24 24 21 21 20 20 22 24 25 26 25 26 27 28
14 15 18 16 17 20 22 17 20 16 8 7 7 5 5 6 5 6 6 7 8 9 10 12 15 17 20 21 20 20 19 21 21 22 22 21 23 25 22 22 21 24 25 26 27 28 29 29 29
23 15 14 19 16 16 16 11 17 18 17 15 17 7 4 7 5 7 6 6 7 7 9 12 15 17 19 19 18 18 19 19 20 20 19 20 21 24 24 24 23 25 27 29 29 30 31 30 29
Wind_Direction
240 216 185 198 29 357 337 126 129 29 22 23 29 31 27 14 15 33 64 40 27 20 36 22 13 7 1 0 1 0 1 2 3 3 1 359 355 350 344 339 336 332 329 329 330 330 327 327 328
244 246 222 136 103 314 310 338 216 43 47 44 27 39 27 23 39 46 52 47 52 42 23 24 25 16 10 7 4 8 7 4 359 358 356 354 352 348 342 339 334 331 328 327 327 326 324 321 319
230 209 221 35 178 324 309 345 164 39 26 35 29 17 18 24 21 47 57 53 43 45 39 27 24 24 17 9 8 8 4 1 358 355 352 348 346 345 341 338 335 331 330 329 327 326 325 323 320
226 257 92 280 278 8 70 102 37 22 13 44 42 19 32 35 39 53 56 59 63 47 44 38 29 24 22 18 15 8 5 360 357 353 351 348 344 342 341 339 336 334 330 327 325 323 322 321 319
206 319 243 235 314 302 292 65 43 15 18 29 28 33 42 53 57 57 59 53 39 52 54 45 38 34 29 26 23 18 16 12 9 5 1 357 355 353 350 348 344 339 333 328 325 323 321 320 319
279 233 243 284 330 314 270 319 54 79 56 45 42 42 45 61 60 59 47 50 50 57 54 50 49 44 35 31 24 18 14 14 10 7 1 359 355 354 351 347 341 337 333 329 326 324 322 320 318
279 262 253 262 345 340 202 298 328 351 1 34 59 41 57 63 58 60 60 61 63 61 62 58 49 44 42 38 35 28 22 20 16 12 3 358 356 351 349 349 344 339 333 330 328 326 325 323 321
297 265 257 257 130 339 34 356 236 102 55 28 47 33 52 62 80 75 70 64 46 31 32 35 50 56 37 59 39 32 28 24 17 6 351 344 347 348 346 350 348 339 336 335 336 336 333 331 328
275 252 244 249 276 0 21 38 96 41 30 24 29 62 73 80 83 77 66 29 19 19 11 23 17 57 57 44 40 38 35 24 9 357 339 331 349 342 339 351 348 349 348 344 340 338 336 335 333
221 292 227 242 255 331 46 105 29 12 33 41 47 59 74 81 60 58 39 28 21 17 13 15 8 4 10 22 30 26 27 17 6 360 347 344 351 343 340 338 353 353 348 345 345 340 335 332 337
186 199 218 221 265 283 329 349 348 354 35 50 60 69 65 52 41 36 23 38 38 36 34 17 4 360 359 7 7 8 4 360 2 1 352 346 351 352 349 349 351 350 347 346 342 337 343 333 334
190 190 208 234 294 290 316 24 16 159 354 76 67 58 56 59 54 45 36 51 50 37 22 15 10 5 1 356 358 353 357 355 354 357 354 351 347 350 348 349 346 343 344 340 335 333 332 333 327
299 280 286 271 295 297 300 332 14 47 73 71 67 61 63 60 58 54 52 39 34 16 12 10 7 0 359 358 355 355 348 349 350 354 353 350 344 343 342 341 343 341 339 334 334 332 330 326 324
310 303 301 299 302 304 292 29 344 19 49 45 57 56 55 57 51 51 42 25 17 14 16 12 8 1 0 360 357 355 353 351 351 350 354 351 347 343 340 338 338 337 335 332 332 330 328 327 324
300 310 305 307 295 290 287 310 324 22 28 44 54 56 51 46 37 26 28 25 18 17 11 14 16 9 8 9 6 5 355 353 353 352 352 348 344 343 340 337 337 337 332 330 331 330 328 324 322
304 307 290 240 283 199 190 281 299 94 102 55 71 55 59 44 34 28 26 19 17 15 12 6 5 6 7 4 9 6 1 355 351 347 346 344 341 341 339 336 335 335 332 330 330 330 327 325 322
300 236 197 265 162 186 180 312 111 144 141 127 109 84 62 32 24 23 23 19 16 13 14 10 7 6 4 3 2 0 1 353 351 348 347 343 341 339 339 335 335 334 332 331 331 329 327 324 322
218 288 243 224 169 174 192 281 173 180 183 178 167 144 56 18 15 23 21 19 16 15 14 10 8 2 5 1 0 356 352 349 348 346 345 344 343 339 338 336 334 333 333 330 334 331 328 326 326
224 310 326 189 161 187 196 237 186 172 180 186 199 203 237 358 16 19 18 16 15 12 10 10 6 3 2 359 356 352 349 348 348 348 345 347 345 344 341 338 336 335 334 336 335 334 328 329 333
229 270 286 348 182 172 305 222 223 232 214 212 205 200 203 3 19 12 13 8 10 12 11 9 6 3 1 359 356 353 350 350 352 349 351 347 348 345 342 340 338 337 338 339 339 339 336 334 341
254 283 272 294 300 300 301 264 225 262 208 213 207 202 201 220 326 350 359 1 9 7 7 6 4 3 1 357 356 355 354 352 349 349 348 350 349 348 347 346 345 344 344 342 346 345 343 337 343
287 282 270 294 302 306 303 234 232 179 217 219 198 201 214 188 320 325 341 356 4 3 6 5 4 1 360 359 358 354 351 350 349 347 347 349 352 350 351 349 349 351 352 351 353 353 348 347 344
284 283 277 317 297 309 309 289 235 262 273 283 257 185 176 186 347 333 351 359 3 10 7 6 4 3 2 1 1 357 356 355 354 354 353 351 353 357 356 353 351 356 359 359 357 357 355 352 344
287 289 258 291 306 278 231 240 305 330 310 2 221 188 205 180 116 88 47 28 16 15 14 9 7 4 4 4 4 2 2 2 3 3 2 2 0 1 2 358 3 5 359 357 356 352 3 357 358
239 283 295 281 270 253 285 297 306 320 186 175 197 189 174 148 126 109 94 42 31 29 14 11 7 5 7 8 7 7 11 13 12 12 11 9 7 5 4 7 6 2 358 354 3 348 359 355 4
234 259 246 299 306 319 286 342 329 61 53 75 175 156 138 138 118 101 91 53 49 24 17 12 11 8 9 12 11 16 19 22 24 25 25 18 15 17 18 7 352 4 358 339 12 6 2 1 11
262 243 198 290 290 307 321 224 39 23 11 17 24 91 98 119 79 72 78 63 58 30 21 15 14 13 15 17 21 25 30 33 35 38 40 32 11 16 354 348 348 5 5 352 5 18 12 8 360
272 292 279 287 294 298 299 302 323 340 353 3 16 75 71 49 66 84 80 63 48 38 28 20 20 18 21 21 25 35 42 46 47 51 49 48 21 338 336 334 330 348 10 8 8 15 20 15 13
265 283 291 289 307 302 305 313 310 322 351 15 19 24 68 80 96 97 84 60 45 43 35 29 25 25 23 26 31 37 41 46 50 55 57 61 52 24 347 344 335 359 15 15 6 9 8 7 7
269 270 275 288 295 306 315 319 326 342 336 339 349 23 77 99 85 104 85 71 53 50 41 28 24 25 25 29 35 42 46 54 55 59 61 61 55 35 9 10 353 9 1 359 3 2 3 7 10